CW8095 Weather Reports


time (UTC)temp
F
wind
direction
speed
knots
gust
knots
rain 1hr
in
rain 24hr
in
rain mn
in
humidity
%
barometer
mb
20260508092519 59 160 0.9 2.6 0.00 0.00 0.00 85 1014.4
20260508091530 59 128 0.0 0.9 0.00 0.00 0.00 84 1014.4
20260508090525 59 0.0 0.0 0.00 0.00 0.00 83 1014.8
20260508085520 60 127 0.0 0.9 0.00 0.00 0.00 84 1014.5
20260508084543 60 145 0.9 2.6 0.00 0.00 0.00 84 1014.4
20260508083519 60 124 2.6 3.5 0.00 0.00 0.00 83 1014.4
20260508082529 61 109 0.9 1.7 0.00 0.00 0.00 80 1014.9
20260508081528 61 125 0.9 1.7 0.00 0.00 0.00 80 1015.0
20260508080527 61 218 0.0 0.9 0.00 0.00 0.00 80 1015.4
20260508075526 61 0.0 0.0 0.00 0.00 0.00 79 1015.6
20260508074521 61 0.0 0.0 0.00 0.00 0.00 80 1015.8
20260508073520 61 260 0.0 0.9 0.00 0.00 0.00 81 1015.8
20260508072531 61 258 0.9 1.7 0.00 0.00 0.00 80 1015.5
20260508071524 61 256 0.0 0.9 0.00 0.00 0.00 78 1015.4
20260508070538 61 0.0 0.0 0.00 0.00 0.00 77 1015.3
20260508065527 61 165 0.0 0.9 0.00 0.00 0.00 79 1015.3
20260508064031 62 165 0.0 0.9 0.00 0.00 0.00 77 1015.6
20260508063026 62 165 0.0 0.9 0.00 0.00 0.00 77 1015.7
20260508062041 62 165 0.0 0.9 0.00 0.00 0.00 77 1015.8
20260508061024 61 0.0 0.0 0.00 0.00 0.00 78 1016.0
20260508060030 61 166 0.0 0.9 0.00 0.00 0.00 79 1016.1
20260508055022 61 137 0.0 0.9 0.00 0.00 0.00 77 1016.0
20260508054056 61 0.0 0.0 0.00 0.00 0.00 75 1016.0
20260508053053 61 0.0 0.0 0.00 0.00 0.00 76 1016.2
20260508052030 62 0.0 0.0 0.00 0.00 0.00 74 1016.0
20260508051024 62 0.0 0.0 0.00 0.00 0.00 73 1016.2
20260508050032 62 133 0.0 0.9 0.00 0.00 0.00 73 1015.9
20260508045025 62 133 0.9 1.7 0.00 0.00 0.00 73 1016.0
20260508044033 62 0.0 0.0 0.00 0.00 0.00 71 1016.2
20260508043032 63 0.0 0.0 0.00 0.00 0.00 70 1016.1
20260508042028 63 0.0 0.0 0.00 0.00 0.00 69 1016.0
20260508041046 63 133 0.0 0.9 0.00 0.00 0.00 69 1016.1
20260508040023 64 133 0.0 0.9 0.00 0.00 0.00 67 1015.9
20260508035040 64 110 0.9 2.6 0.00 0.00 0.00 68 1015.9
20260508034017 64 0.0 0.0 0.00 0.00 0.00 67 1016.0
20260508033051 64 0.0 0.0 0.00 0.00 0.00 66 1015.7
20260508032029 64 94 0.0 0.9 0.00 0.00 0.00 68 1015.4
20260508031027 64 122 0.9 2.6 0.00 0.00 0.00 65 1015.1
20260508030040 64 0.0 0.0 0.00 0.00 0.00 63 1015.3
20260508025030 65 159 0.0 0.9 0.00 0.00 0.00 62 1015.2
20260508024025 65 159 0.0 1.7 0.00 0.00 0.00 61 1015.1
20260508023021 65 159 0.0 1.7 0.00 0.00 0.00 60 1015.2
20260508022016 66 159 0.9 1.7 0.00 0.00 0.00 59 1015.2
20260508021027 66 159 0.0 0.9 0.00 0.00 0.00 58 1015.4
20260508020022 66 159 0.0 0.9 0.00 0.00 0.00 57 1015.2
20260508015018 66 0.0 0.0 0.00 0.00 0.00 56 1015.1
20260508014028 67 0.0 0.0 0.00 0.00 0.00 56 1015.2
20260508013024 67 159 0.0 0.9 0.00 0.00 0.00 55 1015.1
20260508012039 67 159 0.0 0.9 0.00 0.00 0.00 55 1015.1
20260508011030 68 159 0.0 0.9 0.00 0.00 0.00 54 1015.1
20260508010045 68 158 0.0 0.9 0.00 0.00 0.00 53 1015.1
20260508005021 69 158 0.9 1.7 0.00 0.00 0.00 53 1015.3
20260508004017 69 148 0.0 2.6 0.00 0.00 0.00 53 1015.2
20260508003047 69 141 0.0 1.7 0.00 0.00 0.00 52 1015.2
20260508002022 70 141 0.9 2.6 0.00 0.00 0.00 51 1015.2
20260508001018 70 139 0.9 2.6 0.00 0.00 0.00 50 1015.5
20260508000029 70 148 1.7 5.2 0.00 0.00 0.00 49 1015.6
20260507235024 71 132 0.9 2.6 0.00 0.00 0.00 48 1015.4
20260507234020 72 138 0.9 2.6 0.00 0.00 0.00 48 1015.4
20260507233015 72 143 1.7 3.5 0.00 0.00 0.00 47 1015.3
20260507232026 72 130 1.7 3.5 0.00 0.01 0.00 47 1015.5
20260507231021 72 140 1.7 5.2 0.00 0.11 0.00 46 1015.6
20260507230017 73 141 2.6 5.2 0.00 0.11 0.00 46 1015.7
20260507225027 73 125 1.7 3.5 0.00 0.11 0.00 45 1015.6
20260507224023 73 134 1.7 5.2 0.00 0.11 0.00 45 1015.7
20260507223018 74 134 1.7 3.5 0.00 0.11 0.00 44 1015.8
20260507222029 74 133 1.7 5.2 0.00 0.11 0.00 44 1016.1
20260507221024 75 116 1.7 3.5 0.00 0.11 0.00 44 1015.9
20260507220040 75 142 1.7 3.5 0.00 0.11 0.00 42 1015.8
20260507215016 76 138 2.6 6.1 0.00 0.11 0.00 42 1015.8
20260507214046 76 131 1.7 7.0 0.00 0.11 0.00 42 1016.0
20260507213022 76 124 2.6 6.1 0.00 0.11 0.00 42 1016.1
20260507212017 77 136 1.7 3.5 0.00 0.11 0.00 41 1016.4
20260507211108 77 140 1.7 6.1 0.00 0.11 0.00 41 1016.7
20260507210043 78 147 1.7 6.1 0.00 0.11 0.00 39 1016.8
20260507205059 79 142 1.7 3.5 0.00 0.11 0.00 37 1016.6
20260507204029 80 112 0.9 2.6 0.00 0.11 0.00 34 1016.7
20260507203025 81 93 1.7 3.5 0.00 0.11 0.00 33 1016.6
20260507202020 81 87 2.6 5.2 0.00 0.11 0.00 33 1016.3
20260507201016 81 60 3.5 7.0 0.00 0.11 0.00 33 1016.5
20260507200026 81 91 1.7 3.5 0.00 0.11 0.00 34 1016.8
20260507195021 81 60 1.7 6.1 0.00 0.11 0.00 33 1016.9
20260507194017 81 74 2.6 5.2 0.00 0.11 0.00 34 1017.0
20260507193027 82 281 1.7 2.6 0.00 0.11 0.00 33 1017.3
20260507192022 81 80 3.5 7.0 0.00 0.11 0.00 34 1017.7
20260507191018 81 62 2.6 5.2 0.00 0.11 0.00 34 1017.9
20260507190028 80 90 1.7 5.2 0.00 0.11 0.00 36 1018.1
20260507185024 81 80 3.5 7.0 0.00 0.11 0.00 36 1018.0
20260507184040 79 82 2.6 6.1 0.00 0.11 0.00 38 1017.9
20260507183030 78 64 3.5 7.0 0.00 0.11 0.00 38 1017.8
20260507182025 78 78 4.3 8.7 0.00 0.11 0.00 39 1017.7
20260507181020 77 76 2.6 7.8 0.00 0.11 0.00 39 1018.1
20260507180015 77 57 3.5 6.1 0.00 0.11 0.00 39 1018.0
20260507175026 77 58 3.5 8.7 0.00 0.11 0.00 39 1018.1
20260507174022 76 71 2.6 7.0 0.00 0.11 0.00 42 1018.3
20260507173017 77 60 4.3 8.7 0.00 0.11 0.00 40 1018.4
20260507172027 77 69 3.5 8.7 0.00 0.11 0.00 39 1018.7
20260507171023 77 31 1.7 6.1 0.00 0.11 0.00 41 1018.8
20260507170018 77 23 2.6 7.0 0.00 0.11 0.00 41 1019.2
20260507165029 78 359 2.6 7.8 0.00 0.11 0.00 40 1019.6
20260507164024 77 356 2.6 6.1 0.00 0.11 0.00 42 1019.6
20260507163020 76 100 2.6 6.1 0.00 0.11 0.00 43 1019.8
20260507162015 77 79 3.5 7.0 0.00 0.11 0.00 43 1019.8
20260507161026 76 74 3.5 7.8 0.00 0.11 0.00 44 1019.9
20260507160021 74 46 2.6 7.0 0.00 0.11 0.00 46 1019.8
20260507155017 74 86 2.6 6.1 0.00 0.11 0.00 47 1019.6
20260507154027 75 74 4.3 9.6 0.00 0.11 0.00 45 1019.6
20260507153022 73 69 3.5 7.0 0.00 0.11 0.00 49 1019.9
20260507152017 73 68 3.5 6.1 0.00 0.11 0.00 49 1020.0
20260507151028 72 59 1.7 5.2 0.00 0.11 0.00 51 1020.0
20260507150024 71 86 2.6 6.1 0.00 0.11 0.00 53 1020.1
20260507145019 70 49 2.6 5.2 0.00 0.11 0.00 53 1020.2
20260507144029 70 332 1.7 3.5 0.00 0.11 0.00 54 1020.4
20260507143025 70 73 1.7 3.5 0.00 0.11 0.00 53 1020.4
20260507142040 72 47 1.7 3.5 0.00 0.11 0.00 51 1020.3
20260507141016 75 44 2.6 6.1 0.00 0.11 0.00 46 1020.2
20260507140046 76 21 1.7 3.5 0.00 0.11 0.00 48 1020.5
20260507135021 71 18 1.7 5.2 0.00 0.11 0.00 57 1020.5
20260507134017 66 43 0.9 2.6 0.00 0.11 0.00 66 1020.5
20260507133027 62 308 0.0 0.9 0.00 0.11 0.00 74 1020.5
20260507132023 62 271 0.0 1.7 0.00 0.11 0.00 73 1020.5
20260507131018 62 256 0.0 1.7 0.00 0.11 0.00 73 1020.8
20260507130029 59 253 0.9 2.6 0.00 0.11 0.00 80 1020.6
20260507125024 58 249 0.0 0.9 0.00 0.11 0.00 83 1020.7
20260507124020 55 232 0.0 0.9 0.00 0.11 0.00 86 1020.7
20260507121543 52 156 0.0 1.7 0.00 0.11 0.00 88 1020.5
20260507120537 52 0.0 0.0 0.00 0.11 0.00 88 1020.7
20260507115528 52 240 0.0 0.9 0.00 0.11 0.00 89 1020.7
20260507114522 52 255 0.0 1.7 0.00 0.11 0.00 89 1020.5
20260507113516 52 264 0.0 0.9 0.00 0.11 0.00 89 1020.3
20260507112526 52 265 0.0 0.9 0.00 0.11 0.00 88 1020.0
20260507111521 52 265 0.0 0.9 0.00 0.11 0.00 87 1019.9
20260507110530 52 261 0.0 0.9 0.00 0.11 0.00 87 1019.9
20260507105527 52 239 0.0 0.9 0.00 0.11 0.00 87 1019.6
20260507104523 52 258 0.0 0.9 0.00 0.11 0.00 86 1019.4
20260507103531 52 249 0.0 0.9 0.00 0.11 0.00 86 1019.1
20260507102526 52 239 0.0 1.7 0.00 0.11 0.00 85 1018.8
20260507101522 52 0.0 0.0 0.00 0.11 0.00 85 1018.9
20260507100519 53 235 0.0 0.9 0.00 0.11 0.00 85 1018.5
20260507095530 53 236 0.0 1.7 0.00 0.11 0.00 84 1018.6
20260507094527 53 20 0.9 2.6 0.00 0.11 0.00 84 1018.2
20260507093523 53 6 0.9 2.6 0.00 0.11 0.00 83 1018.1